• In Belarus
  • List of Countries
  • For 7 days
  • Water Temperature
  • Satellite Maps
  • Weather Map
  • Weather Widgets
  • user-avatar
    Login

    Hourly Weather Domnino

    Today, 16 July, Monday

    Time Temperature Precipitation Wind Pressure Humidity
    00:00 +19°C° 0.8 mm 2 mps 737 mmHg 95%
    01:00 +19°C° 0.8 mm 2 mps 737 mmHg 96%
    02:00 +19°C° 0 mm 2 mps 737 mmHg 96%
    03:00 +19°C° 0.6 mm 2 mps 737 mmHg 96%
    04:00 +19°C° 0.6 mm 3 mps 737 mmHg 96%
    05:00 +19°C° 0.6 mm 3 mps 737 mmHg 96%
    06:00 +20°C° 0.9 mm 3 mps 737 mmHg 92%
    07:00 +22°C° 0.9 mm 3 mps 737 mmHg 88%
    08:00 +24°C° 0.9 mm 3 mps 737 mmHg 84%
    09:00 +25°C° 0.8 mm 3 mps 737 mmHg 80%
    10:00 +26°C° 0.8 mm 3 mps 737 mmHg 76%
    11:00 +27°C° 0.8 mm 3 mps 737 mmHg 73%
    12:00 +27°C° 0.6 mm 3 mps 736 mmHg 72%
    13:00 +27°C° 0.6 mm 3 mps 736 mmHg 72%
    14:00 +28°C° 0.6 mm 3 mps 736 mmHg 71%
    15:00 +27°C° 0.6 mm 3 mps 736 mmHg 74%
    16:00 +27°C° 0.6 mm 3 mps 736 mmHg 78%
    17:00 +26°C° 0.6 mm 3 mps 736 mmHg 81%
    18:00 +25°C° 0.7 mm 3 mps 736 mmHg 84%
    19:00 +24°C° 0.7 mm 3 mps 736 mmHg 87%
    20:00 +21°C° 0.7 mm 3 mps 735 mmHg 90%
    21:00 +21°C° 0.2 mm 3 mps 735 mmHg 91%
    22:00 +21°C° 0.2 mm 3 mps 735 mmHg 92%
    23:00 +20°C° 0.2 mm 3 mps 735 mmHg 94%

    Tomorrow, 17 July, Tuesday

    Time Temperature Precipitation Wind Pressure Humidity
    00:00 +20°C° 0.3 mm 3 mps 735 mmHg 94%
    01:00 +20°C° 0.3 mm 3 mps 735 mmHg 95%
    02:00 +20°C° 0.3 mm 3 mps 735 mmHg 95%
    03:00 +20°C° 0.5 mm 3 mps 735 mmHg 95%
    04:00 +20°C° 0.5 mm 4 mps 734 mmHg 95%
    05:00 +20°C° 0.5 mm 4 mps 734 mmHg 95%
    06:00 +21°C° 0.4 mm 5 mps 734 mmHg 92%
    07:00 +23°C° 0.4 mm 5 mps 734 mmHg 89%
    08:00 +24°C° 0.4 mm 6 mps 734 mmHg 87%
    09:00 +24°C° 0.7 mm 6 mps 734 mmHg 84%
    10:00 +26°C° 0.7 mm 6 mps 734 mmHg 82%
    11:00 +26°C° 0.7 mm 6 mps 734 mmHg 80%
    12:00 +26°C° 0.8 mm 6 mps 734 mmHg 81%
    13:00 +26°C° 0.8 mm 5 mps 733 mmHg 82%
    14:00 +26°C° 0.8 mm 5 mps 733 mmHg 83%
    15:00 +26°C° 0.6 mm 5 mps 733 mmHg 84%
    16:00 +26°C° 0.6 mm 4 mps 733 mmHg 84%
    17:00 +26°C° 0.6 mm 4 mps 733 mmHg 85%
    18:00 +25°C° 0.5 mm 4 mps 733 mmHg 87%
    19:00 +22°C° 0.5 mm 4 mps 733 mmHg 90%
    20:00 +21°C° 0.5 mm 3 mps 733 mmHg 92%
    21:00 +21°C° 0.1 mm 3 mps 733 mmHg 93%
    22:00 +20°C° 0.1 mm 3 mps 733 mmHg 94%
    23:00 +20°C° 0.1 mm 3 mps 733 mmHg 95%

    Day after tomorrow, 18 July, Wednesday

    Time Temperature Precipitation Wind Pressure Humidity
    00:00 +20°C° 0 mm 3 mps 733 mmHg 96%
    01:00 +19°C° 0 mm 3 mps 732 mmHg 96%
    02:00 +19°C° 0 mm 3 mps 732 mmHg 97%
    03:00 +19°C° 0 mm 3 mps 732 mmHg 97%
    04:00 +19°C° 0 mm 4 mps 732 mmHg 97%
    05:00 +19°C° 0 mm 4 mps 732 mmHg 97%
    06:00 +20°C° 0.1 mm 4 mps 732 mmHg 95%
    07:00 +20°C° 0.1 mm 5 mps 732 mmHg 94%
    08:00 +20°C° 0.1 mm 5 mps 732 mmHg 92%
    09:00 +20°C° 0.2 mm 5 mps 732 mmHg 92%
    10:00 +21°C° 0.2 mm 4 mps 732 mmHg 92%
    11:00 +21°C° 0.2 mm 4 mps 732 mmHg 92%
    12:00 +21°C° 0.2 mm 4 mps 732 mmHg 90%
    13:00 +22°C° 0.2 mm 5 mps 731 mmHg 89%
    14:00 +22°C° 0.2 mm 5 mps 731 mmHg 87%
    15:00 +23°C° 0.1 mm 5 mps 731 mmHg 86%
    16:00 +23°C° 0.1 mm 4 mps 731 mmHg 84%
    17:00 +23°C° 0.1 mm 4 mps 731 mmHg 83%
    18:00 +22°C° 0 mm 4 mps 731 mmHg 87%
    19:00 +21°C° 0 mm 3 mps 732 mmHg 90%
    20:00 +20°C° 0 mm 2 mps 732 mmHg 94%
    21:00 +19°C° 0 mm 2 mps 732 mmHg 95%
    22:00 +19°C° 0 mm 2 mps 732 mmHg 96%
    23:00 +18°C° 0 mm 2 mps 732 mmHg 96%

    19 July, Thursday

    Time Temperature Precipitation Wind Pressure Humidity
    00:00 +18°C° 0 mm 2 mps 732 mmHg 97%
    01:00 +17°C° 0 mm 2 mps 732 mmHg 97%
    02:00 +18°C° 0 mm 1 mps 732 mmHg 98%
    03:00 +18°C° 0 mm 1 mps 732 mmHg 98%
    04:00 +19°C° 0 mm 1 mps 732 mmHg 97%
    05:00 +19°C° 0 mm 1 mps 733 mmHg 97%
    06:00 +20°C° 0 mm 1 mps 733 mmHg 94%
    07:00 +21°C° 0 mm 1 mps 733 mmHg 91%
    08:00 +22°C° 0 mm 1 mps 733 mmHg 88%
    09:00 +23°C° 0.2 mm 1 mps 733 mmHg 84%
    10:00 +24°C° 0.2 mm 2 mps 733 mmHg 79%
    11:00 +25°C° 0.2 mm 2 mps 733 mmHg 75%
    12:00 +26°C° 0.4 mm 2 mps 733 mmHg 73%
    13:00 +26°C° 0.4 mm 2 mps 733 mmHg 71%
    14:00 +27°C° 0.4 mm 2 mps 733 mmHg 70%
    15:00 +27°C° 0.3 mm 2 mps 734 mmHg 72%
    16:00 +26°C° 0.3 mm 2 mps 734 mmHg 75%
    17:00 +26°C° 0.3 mm 2 mps 734 mmHg 77%
    18:00 +25°C° 0.3 mm 2 mps 734 mmHg 82%
    19:00 +24°C° 0.3 mm 2 mps 734 mmHg 86%
    20:00 +21°C° 0.3 mm 2 mps 734 mmHg 91%
    21:00 +21°C° 0.1 mm 2 mps 734 mmHg 92%
    22:00 +20°C° 0.1 mm 2 mps 734 mmHg 94%
    23:00 +20°C° 0.1 mm 2 mps 734 mmHg 95%

    20 July, Friday

    Time Temperature Precipitation Wind Pressure Humidity
    00:00 +20°C° 0 mm 2 mps 735 mmHg 96%
    01:00 +19°C° 0 mm 2 mps 735 mmHg 96%
    02:00 +19°C° 0 mm 2 mps 735 mmHg 96%
    03:00 +19°C° 0 mm 2 mps 735 mmHg 96%
    04:00 +19°C° 0 mm 2 mps 735 mmHg 96%
    05:00 +19°C° 0 mm 2 mps 735 mmHg 96%
    06:00 +21°C° 0.1 mm 2 mps 735 mmHg 92%
    07:00 +22°C° 0.1 mm 3 mps 736 mmHg 89%
    08:00 +24°C° 0.1 mm 3 mps 736 mmHg 85%
    09:00 +25°C° 0.7 mm 4 mps 736 mmHg 81%
    10:00 +26°C° 0.7 mm 4 mps 736 mmHg 77%
    11:00 +27°C° 0.7 mm 4 mps 736 mmHg 73%
    12:00 +27°C° 0.8 mm 5 mps 736 mmHg 73%
    13:00 +27°C° 0.8 mm 5 mps 736 mmHg 73%
    14:00 +27°C° 0.8 mm 5 mps 736 mmHg 72%
    15:00 +27°C° 0.4 mm 4 mps 736 mmHg 75%
    16:00 +27°C° 0.4 mm 3 mps 736 mmHg 77%
    17:00 +27°C° 0.4 mm 3 mps 736 mmHg 80%
    18:00 +25°C° 0.2 mm 3 mps 736 mmHg 84%
    19:00 +24°C° 0.2 mm 3 mps 736 mmHg 87%
    20:00 +22°C° 0.2 mm 3 mps 736 mmHg 91%
    21:00 +21°C° 0 mm 2 mps 736 mmHg 92%
    22:00 +21°C° 0 mm 2 mps 736 mmHg 94%
    23:00 +20°C° 0 mm 2 mps 736 mmHg 95%

    21 July, Saturday

    Time Temperature Precipitation Wind Pressure Humidity
    00:00 +20°C° 0 mm 2 mps 736 mmHg 95%
    01:00 +20°C° 0 mm 2 mps 736 mmHg 95%
    02:00 +19°C° 0 mm 2 mps 736 mmHg 96%
    03:00 +19°C° 0 mm 2 mps 736 mmHg 96%
    04:00 +19°C° 0 mm 2 mps 736 mmHg 96%
    05:00 +19°C° 0 mm 2 mps 736 mmHg 96%
    06:00 +21°C° 0.3 mm 3 mps 736 mmHg 92%
    07:00 +22°C° 0.3 mm 3 mps 736 mmHg 89%
    08:00 +24°C° 0.3 mm 3 mps 736 mmHg 85%
    09:00 +25°C° 1.4 mm 3 mps 736 mmHg 81%
    10:00 +26°C° 1.4 mm 3 mps 736 mmHg 76%
    11:00 +27°C° 1.4 mm 3 mps 736 mmHg 72%
    12:00 +27°C° 0.7 mm 3 mps 736 mmHg 72%
    13:00 +28°C° 0.7 mm 3 mps 736 mmHg 71%
    14:00 +28°C° 0.7 mm 3 mps 736 mmHg 71%
    15:00 +28°C° 0.9 mm 3 mps 736 mmHg 74%
    16:00 +27°C° 0.9 mm 3 mps 736 mmHg 77%
    17:00 +27°C° 0.9 mm 2 mps 736 mmHg 80%
    18:00 +26°C° 0.8 mm 2 mps 736 mmHg 83%
    19:00 +25°C° 0.8 mm 2 mps 736 mmHg 86%
    20:00 +23°C° 0.8 mm 2 mps 736 mmHg 90%
    21:00 +23°C° 0.3 mm 2 mps 736 mmHg 91%
    22:00 +21°C° 0.3 mm 2 mps 736 mmHg 92%
    23:00 +21°C° 0.3 mm 2 mps 735 mmHg 94%
    Show more